sat.trackr.live / text

‹ back to catalog

STARLINK-2754

NORAD 48641 · 2021-044D

PAYLOAD ACTIVE UNKNOWN

§ Identity

Operator
Country
US
Launch date
2021-05-26
Launch site
AFETR
Launch vehicle
Mass (kg)
RCS (m²)

Purposes: comms

External: N2YO · Heavens-Above · Gunter

§ Orbital elements

Epoch: 2026-05-25T02:53:13.235712Z

Period
94.01 min
Inclination
53.1609°
Eccentricity
0.0001287
Mean motion
15.31700426 rev/d
Perigee alt
469.9 km
Apogee alt
471.6 km
Semi-major
6,848.9 km
B*
-4.5175e-6
RAAN
118.6051°
Arg perigee
83.5482°
Mean anomaly
276.5665°
Rev number
27,553

§ Raw data

STARLINK-27541 48641U 21044D   26145.12029208 -.00000505  00000+0 -45175-5 0  99942 48641  53.1609 118.6051 0001287  83.5482 276.5665 15.31700426275537

JSON: /api/v1/satellites/48641 · /tle

For live sub-satellite position, see the globe view (requires WebGL).

§ Visibility from observer

Set your observer location to see the next 7 days of passes ≥ 10°. The values pass through the URL so the page stays shareable.

No JS? Fill the form by hand. The geolocation button needs JavaScript.